Theta_e
333 334 336 340 341 341 342 346 348 347 349 351 353 353 352 354 356 359 361 364 365 367 368 368 367 367 367 367 368 368 367 368 369 367 366 366 365 365 365 364 364 363 361 360 358 356 357 360 356 354 354 353 352 354 354 355 354 353 353 353 354 353 349
332 334 334 335 341 342 344 347 351 348 348 351 352 353 352 353 356 358 360 365 366 367 368 368 367 367 367 367 368 368 367 368 368 367 367 366 366 367 366 365 364 364 363 360 360 360 357 358 358 355 353 353 351 353 353 354 354 353 351 352 349 351 351
333 334 334 335 338 341 344 343 348 349 348 350 351 351 351 353 357 359 360 363 366 368 369 368 367 367 368 368 367 367 367 367 367 367 366 365 365 362 365 366 365 364 363 362 362 358 359 356 358 356 354 351 348 352 353 353 353 352 352 351 349 349 350
332 333 335 339 341 343 344 345 349 348 347 346 349 350 353 355 357 360 361 363 365 367 368 369 368 367 368 368 367 367 367 367 367 366 365 365 365 364 364 365 365 364 363 361 361 357 356 356 355 356 356 352 350 350 350 351 350 351 351 351 348 348 349
336 338 336 339 340 343 344 346 350 349 346 345 348 353 355 357 357 359 361 363 364 365 368 369 367 368 369 369 367 367 367 367 367 366 366 366 366 365 365 362 364 362 362 362 361 360 358 356 354 354 352 353 351 350 351 351 349 350 349 349 347 346 347
337 336 336 337 338 341 344 344 345 347 346 344 346 352 354 354 354 354 357 362 363 366 369 370 370 369 369 369 367 368 369 369 368 368 366 366 366 364 363 364 363 362 362 361 360 359 358 356 353 352 350 350 348 348 349 350 349 348 349 349 348 347 345
334 336 337 336 337 337 341 344 345 347 347 346 347 352 353 353 352 352 354 357 361 365 366 368 369 369 368 368 368 369 369 369 369 368 367 366 365 364 364 364 364 363 362 363 359 357 356 355 353 351 350 348 349 348 348 349 349 349 350 349 347 349 347
333 334 339 341 341 337 338 344 347 347 349 349 346 347 350 353 353 352 351 355 358 362 365 366 368 369 368 369 369 368 369 369 369 369 368 366 365 364 364 364 364 365 365 361 360 357 355 355 354 353 351 348 349 349 349 350 350 349 349 348 347 346 346
334 336 338 338 338 338 341 345 348 350 350 351 349 350 350 351 351 351 351 353 357 361 364 367 368 369 369 369 368 368 369 370 369 368 367 366 365 362 361 364 365 366 364 361 359 358 356 354 354 353 352 349 349 349 349 350 350 348 349 347 347 345 344
335 339 339 336 337 335 340 342 346 352 353 352 352 353 353 354 354 353 353 354 356 360 364 366 367 368 370 369 368 368 368 369 370 368 365 363 364 361 360 361 364 365 364 362 359 357 357 356 354 354 352 350 349 349 349 349 348 348 348 347 347 346 344
337 343 342 338 340 342 345 343 345 353 355 353 353 354 356 357 357 356 356 355 356 359 363 365 365 368 368 367 365 366 368 368 368 368 367 364 364 363 360 361 362 363 362 361 358 358 357 356 355 354 352 350 350 348 348 349 348 347 345 347 347 346 344
345 346 345 347 349 347 345 346 352 357 358 357 354 355 358 359 359 358 357 356 356 359 361 361 361 365 366 367 367 367 367 367 367 367 366 365 363 363 361 360 362 362 361 360 359 358 356 356 354 352 350 349 349 348 347 348 348 347 345 346 346 345 344
344 349 347 349 351 351 352 356 359 357 359 359 356 355 358 358 357 356 357 356 355 357 358 361 360 363 368 368 364 366 367 367 367 367 367 366 365 365 363 360 360 361 360 360 359 358 355 354 353 351 350 349 349 349 346 346 348 347 346 345 345 345 344
353 352 353 354 354 355 354 357 364 361 360 361 359 357 357 358 356 356 356 354 353 354 355 357 358 362 367 367 365 366 367 368 368 368 368 367 367 366 364 361 361 362 363 361 360 358 356 353 352 350 350 348 348 348 346 346 347 348 347 346 345 345 345
348 348 352 351 355 355 355 357 366 366 362 362 362 359 359 358 357 357 357 354 353 352 353 356 358 360 365 367 366 366 368 369 369 369 369 369 368 366 365 364 363 364 364 362 360 358 356 355 351 349 348 348 348 346 346 346 346 347 346 345 345 344 343
346 347 348 349 354 356 358 357 362 368 365 365 363 361 359 359 359 358 357 355 354 353 353 358 359 360 364 367 367 369 370 371 371 370 371 369 367 367 366 365 364 363 363 361 359 358 356 354 351 349 347 347 347 346 345 345 346 342 335 338 345 345 344
333 329 340 347 356 356 357 357 359 365 365 364 364 362 360 360 361 360 357 356 353 354 355 359 360 361 364 367 369 371 372 372 372 372 370 369 368 368 367 365 364 363 363 362 360 357 356 353 348 347 346 346 346 345 345 346 346 334 330 333 337 343 344
326 338 336 340 350 353 355 355 356 361 363 363 363 364 362 363 363 362 357 357 354 353 355 360 361 361 364 369 371 372 373 373 373 372 371 369 368 368 367 365 364 364 364 363 360 359 356 351 348 347 346 346 346 345 345 346 337 328 328 331 332 338 344
327 331 339 351 353 354 354 353 355 360 362 362 363 364 364 365 363 362 360 359 359 358 355 361 362 363 366 371 372 373 374 374 372 370 369 368 368 368 367 366 364 364 363 361 361 360 355 351 348 346 346 346 346 344 345 345 332 326 326 328 329 332 340
329 329 329 333 355 355 357 357 356 360 363 364 364 362 363 365 364 364 363 364 364 361 358 363 365 365 368 372 372 374 373 372 370 369 368 368 367 367 366 365 364 364 363 361 361 358 354 350 348 348 348 347 347 345 346 346 328 325 324 326 326 327 333
338 342 343 341 346 356 360 362 362 364 367 364 362 363 363 364 366 365 364 365 364 363 362 366 367 367 370 372 373 372 371 370 369 368 367 367 366 365 365 364 365 364 362 360 358 354 351 348 346 347 348 347 346 345 346 347 324 322 322 322 322 323 328
325 328 330 334 339 345 364 363 363 364 367 365 365 361 361 363 362 360 361 364 364 363 366 369 368 368 371 371 371 370 370 369 368 367 366 365 365 364 363 363 364 362 361 359 357 355 352 350 347 347 347 347 345 344 347 345 320 321 320 319 319 322 336
323 327 327 331 333 341 370 366 366 365 369 367 364 362 362 363 362 362 360 359 360 363 367 369 368 368 371 370 369 369 369 368 366 365 364 363 361 360 360 362 363 363 363 360 357 354 350 349 348 348 346 346 349 347 346 339 322 318 316 317 320 324 337
323 325 328 330 333 334 357 368 367 368 368 366 364 363 364 364 364 364 362 360 361 361 364 367 368 371 371 370 369 368 368 367 364 363 362 360 359 358 358 359 362 363 363 360 356 353 351 351 349 349 348 345 347 345 346 339 323 317 315 318 318 327 338
323 324 326 327 329 331 357 367 366 368 367 366 363 364 368 366 364 362 362 362 360 359 362 367 370 371 370 369 369 368 366 365 364 361 359 359 357 356 356 357 359 361 362 360 359 356 354 350 349 349 349 347 347 345 344 340 326 316 316 315 316 327 341
334 328 328 334 336 365 367 368 368 366 364 364 365 366 369 366 365 361 361 362 362 362 365 368 370 371 369 368 367 366 365 363 362 360 358 359 358 357 358 358 357 358 358 358 357 356 354 351 349 346 346 345 344 345 345 340 330 324 315 315 314 321 343
341 339 336 331 333 361 370 368 367 363 362 364 366 366 366 365 364 362 363 365 363 364 367 370 371 370 368 367 364 363 362 361 360 358 358 359 357 357 357 357 356 357 359 356 356 354 350 348 346 344 340 338 340 341 338 339 338 332 314 312 313 318 329
340 341 340 335 352 362 364 361 365 365 361 367 367 366 367 366 364 364 365 365 365 367 370 371 370 368 366 365 363 361 360 358 360 358 357 358 359 358 357 359 360 359 359 356 355 351 349 347 344 343 340 335 336 341 340 336 332 328 314 312 312 314 319
353 347 352 362 361 362 358 359 360 358 359 365 367 367 367 367 364 364 364 365 367 369 370 368 367 366 364 363 361 359 358 358 357 356 357 358 359 358 357 359 360 360 358 355 352 350 348 348 343 342 340 338 339 337 340 340 333 322 323 313 311 310 315
351 354 356 354 356 357 355 359 359 359 363 363 366 367 368 367 363 363 363 365 368 368 366 366 366 364 362 359 359 358 356 357 356 357 358 358 357 357 357 357 357 356 355 354 351 349 348 347 342 339 337 336 336 340 341 340 336 325 324 322 313 310 310
352 349 351 355 357 362 361 360 362 362 363 366 368 368 368 367 363 362 363 365 366 364 364 363 362 361 359 358 357 356 355 355 355 355 356 356 356 354 353 353 354 352 353 352 351 349 346 345 342 341 340 337 337 339 341 341 339 335 326 321 315 311 310
341 343 348 354 360 360 360 364 363 362 363 365 368 367 366 367 365 361 363 365 363 364 363 362 360 359 358 357 356 355 354 354 353 355 355 354 354 354 353 352 350 350 350 350 348 348 346 345 342 339 337 336 337 338 338 338 337 334 330 324 321 317 312
344 343 338 333 335 348 359 360 357 360 361 361 364 365 365 364 364 364 364 364 363 363 363 360 358 356 357 356 354 355 354 352 351 352 352 352 352 352 352 352 351 350 348 348 346 346 344 342 340 337 335 335 336 337 336 336 337 336 332 330 328 327 321
342 340 339 340 341 341 343 345 349 352 356 353 357 359 362 362 362 362 362 361 360 360 360 357 357 354 353 352 352 352 351 349 352 351 350 348 346 346 348 350 349 348 348 347 346 343 341 340 338 336 335 336 336 335 334 334 336 336 334 332 333 331 328
338 338 339 339 340 341 343 345 345 345 346 353 355 356 356 356 356 356 356 356 357 358 354 352 351 352 351 350 350 349 350 349 350 344 338 331 322 316 314 315 323 338 333 326 325 342 342 341 340 339 339 339 338 335 332 333 333 335 326 334 322 328 328
339 338 337 339 340 342 343 344 344 347 348 351 352 354 354 354 354 355 356 356 355 354 352 351 349 349 347 347 346 347 347 347 344 339 336 331 325 321 316 308 297 304 327 326 313 305 307 322 339 341 340 341 340 337 336 334 338 310 309 311 311 312 311
334 335 336 337 339 341 341 345 348 349 348 349 350 350 350 351 351 354 354 355 355 353 353 353 349 347 346 345 344 343 346 344 340 338 337 335 332 330 327 323 315 297 296 302 303 300 298 299 304 316 324 335 329 311 301 303 299 298 298 299 299 297 296
336 338 345 344 346 347 348 348 347 348 348 350 350 351 352 350 352 355 354 356 355 355 356 354 351 347 345 344 345 344 346 343 340 339 338 336 335 333 330 328 325 319 300 295 297 298 295 296 300 306 310 312 316 316 312 301 297 296 297 297 297 296 295
Wind_Speed
17 17 14 12 15 16 16 15 17 16 16 17 17 19 19 16 15 14 15 17 18 17 17 16 16 15 16 14 14 12 11 11 10 10 10 8 8 8 9 9 9 8 8 8 7 8 6 5 8 9 8 7 6 6 6 4 5 5 5 3 2 3 5
18 16 16 15 15 17 16 14 16 17 15 16 17 19 18 17 16 16 15 17 18 18 18 17 16 15 15 14 12 13 13 12 11 10 9 9 8 8 9 9 9 9 8 8 8 7 8 7 7 8 9 7 7 6 7 6 5 5 5 5 5 3 3
18 16 16 16 16 15 16 16 16 17 17 16 17 18 19 18 17 18 17 18 19 18 17 17 17 16 16 14 14 14 14 13 12 12 12 11 11 12 10 10 9 8 8 8 8 8 8 8 7 8 9 9 8 8 7 7 6 5 5 5 5 5 4
17 16 15 16 16 15 16 17 18 20 19 20 20 21 20 19 18 16 16 18 19 18 19 18 17 17 16 16 15 15 15 14 13 13 13 12 12 10 10 9 9 8 9 8 7 9 8 9 9 8 10 9 8 8 8 9 8 7 6 6 6 6 5
18 16 15 14 14 13 15 16 17 19 21 23 21 19 19 19 18 16 16 17 20 20 20 19 17 16 15 16 13 13 14 15 14 13 13 12 11 11 11 11 10 10 9 9 8 8 8 9 9 8 8 8 9 8 9 9 9 9 8 7 6 7 6
19 18 15 15 14 14 16 20 22 22 23 23 21 19 20 23 21 24 21 18 18 19 18 18 18 17 17 17 14 13 14 15 14 14 13 12 12 12 12 11 11 11 11 11 9 9 10 10 10 9 10 9 9 9 9 9 8 9 7 6 5 5 7
19 16 14 15 15 15 17 18 20 20 21 20 20 17 20 22 24 23 21 21 22 21 22 22 20 18 17 15 15 15 16 16 15 16 14 14 13 12 12 11 10 11 10 10 10 10 11 12 12 11 11 11 10 10 10 9 8 8 7 7 7 5 6
18 16 15 14 14 16 16 14 16 19 17 16 18 22 24 23 22 23 23 22 22 22 22 23 21 18 16 15 15 17 17 17 16 15 14 14 14 13 12 12 11 11 10 11 11 11 12 13 11 11 11 11 10 9 9 9 9 9 8 8 8 8 6
18 19 17 16 15 13 11 7 9 14 17 19 20 19 21 21 22 23 24 23 22 23 23 23 22 18 15 15 16 17 17 16 16 16 16 16 14 15 15 13 12 11 12 11 11 11 11 12 12 12 12 11 10 9 9 10 10 9 9 10 10 10 7
20 16 15 16 13 15 14 16 15 13 15 17 17 16 20 19 19 20 21 22 22 24 24 23 21 19 16 16 17 18 17 17 16 17 18 18 15 17 17 16 14 12 13 12 11 12 11 12 12 12 12 11 10 9 9 12 11 10 10 11 11 9 8
16 11 12 14 15 15 14 14 14 15 16 17 16 15 16 17 18 19 19 21 22 22 23 22 18 18 18 18 20 19 17 18 17 17 18 18 16 19 19 17 16 14 15 13 13 13 12 11 11 11 12 12 12 13 11 12 12 11 11 10 10 10 9
13 15 13 12 13 15 16 16 13 13 14 14 16 16 15 17 17 18 18 20 21 21 21 21 19 20 19 20 19 17 19 17 17 17 19 19 17 19 18 16 14 14 14 14 15 14 14 14 12 12 13 13 13 13 12 11 11 12 11 11 11 10 10
15 13 15 14 13 12 11 10 13 16 16 15 17 16 15 18 18 18 16 18 20 18 18 17 16 16 18 19 20 17 17 17 17 16 18 15 15 14 15 16 17 17 16 15 15 15 15 15 14 13 13 13 11 12 12 12 12 12 11 10 11 10 10
11 11 11 10 10 11 12 11 10 13 15 15 15 16 16 17 18 17 16 17 18 18 19 16 16 16 17 17 17 16 17 17 16 16 15 15 14 14 13 14 13 13 13 13 15 16 15 15 15 13 13 13 12 12 12 12 11 11 11 11 10 10 10
12 15 14 13 12 11 12 11 9 11 13 14 15 16 16 16 16 15 14 15 16 17 18 15 15 15 16 17 15 15 15 15 14 14 14 14 13 13 13 13 12 12 14 14 14 13 16 15 15 14 14 14 13 13 12 12 12 11 12 12 11 11 12
12 11 11 11 10 11 11 11 9 10 12 12 14 15 15 14 15 16 16 16 16 15 15 14 15 15 16 17 15 13 14 14 13 13 13 13 14 14 13 12 12 12 13 15 14 12 12 13 14 14 15 15 14 13 12 11 10 13 17 14 11 12 10
13 14 14 9 7 8 10 11 11 11 12 13 14 15 15 14 14 14 17 16 18 16 15 15 15 15 15 16 14 13 13 13 13 12 13 14 12 12 12 12 11 10 11 12 13 13 12 13 15 14 14 15 15 15 12 11 11 18 18 19 17 11 9
15 10 17 16 15 14 13 13 14 14 14 15 15 14 14 13 13 13 16 16 17 16 15 14 16 16 15 14 13 13 13 12 12 12 12 11 12 11 11 10 10 10 10 11 13 12 11 13 14 13 13 13 14 14 13 11 14 18 18 17 17 15 10
12 9 6 14 16 15 15 16 15 15 16 15 14 14 16 15 14 15 15 14 14 13 14 14 15 15 14 13 14 13 13 12 12 12 11 11 10 10 10 10 10 10 10 11 10 9 9 10 12 13 12 12 13 14 13 11 14 18 18 15 16 16 13
13 13 12 8 14 17 15 14 12 14 16 16 17 20 17 15 15 14 13 11 11 13 13 12 13 14 14 13 13 13 13 12 12 12 11 11 10 9 9 10 11 9 8 8 7 7 7 9 11 11 11 11 11 11 10 10 14 19 17 17 17 15 8
8 5 5 6 5 13 14 14 14 15 15 17 18 15 14 13 12 12 13 12 13 13 11 11 13 13 13 13 12 12 13 12 12 12 11 11 10 10 9 9 8 7 8 8 9 10 9 9 10 10 10 11 10 10 11 8 17 19 20 19 16 14 9
16 13 12 9 8 6 16 15 15 16 16 15 14 16 17 16 17 17 15 14 13 12 11 10 12 13 13 13 13 13 13 13 12 11 10 10 9 9 9 8 8 9 8 8 8 9 9 8 8 9 10 10 11 10 11 8 18 20 19 17 14 13 8
18 16 16 14 13 10 13 16 16 16 14 14 16 17 17 17 17 16 17 18 15 13 12 11 13 13 13 13 14 14 12 11 11 11 10 10 9 9 9 8 8 8 7 7 7 8 9 9 9 8 9 10 9 9 8 8 15 17 15 14 18 15 8
19 19 17 14 12 14 11 16 16 15 17 17 16 17 16 17 17 15 16 16 16 16 13 13 13 12 12 13 13 11 11 10 11 10 9 9 10 9 7 6 5 6 6 7 7 9 10 9 8 8 9 9 10 10 9 8 13 20 19 22 18 14 10
23 23 21 18 16 19 15 15 16 16 17 16 17 16 16 17 18 18 15 15 18 17 13 13 13 12 12 12 11 10 10 9 9 9 9 9 9 9 9 8 6 6 6 7 7 7 7 8 8 7 7 7 8 10 10 10 12 20 18 15 17 13 7
12 15 16 12 13 6 13 15 16 16 16 16 16 17 17 18 17 17 15 15 15 15 14 13 13 12 11 11 10 9 9 9 10 10 9 9 8 7 7 7 7 8 8 8 7 7 7 6 6 7 6 7 6 6 8 12 8 12 16 16 13 12 6
7 6 10 14 11 13 8 10 13 15 17 15 15 15 16 16 15 14 13 13 13 14 14 14 13 13 13 12 12 12 12 10 10 10 9 8 7 6 6 6 6 6 7 8 7 5 5 6 5 6 6 6 8 7 7 10 11 11 16 15 15 13 4
4 13 13 16 13 15 11 12 12 13 14 11 14 15 15 15 14 14 14 13 13 14 14 14 13 12 11 11 11 11 10 9 8 7 6 7 7 6 5 5 5 5 6 6 5 7 7 6 7 6 6 6 8 8 9 8 11 9 12 15 16 14 9
2 5 10 6 12 13 15 12 13 15 13 13 13 14 13 14 15 14 14 14 14 13 14 14 14 13 12 12 12 12 11 10 11 9 7 7 7 7 6 5 4 4 6 6 7 8 7 7 7 8 8 7 6 6 6 7 9 14 11 14 15 15 16
2 4 10 4 6 9 11 11 10 11 11 12 12 12 13 15 16 15 15 15 14 14 15 14 14 13 13 12 11 11 11 10 11 8 7 7 7 6 6 5 5 6 6 6 7 7 7 6 7 6 7 6 6 6 8 9 8 12 17 13 14 15 16
12 4 4 6 7 7 7 9 10 11 12 10 12 11 13 14 16 16 16 14 14 15 15 15 14 13 12 11 11 10 11 10 9 8 7 7 7 6 7 7 5 6 6 6 6 6 6 6 6 6 6 7 7 8 8 8 9 7 8 12 12 14 16
16 22 15 2 5 8 9 8 11 12 12 12 13 12 12 13 15 16 15 14 14 14 14 14 13 12 12 12 11 11 11 10 10 8 7 7 6 6 6 6 7 6 5 5 5 5 6 6 6 6 6 7 7 8 8 8 7 7 7 8 10 10 11
12 13 17 20 25 19 1 11 12 12 13 14 13 13 13 15 13 14 13 13 13 13 13 13 13 12 11 11 10 10 9 9 7 7 7 6 6 6 5 5 4 5 6 5 5 5 5 4 5 6 7 8 8 8 8 7 6 5 5 4 5 4 4
11 14 13 11 8 11 13 10 7 8 10 9 8 11 13 14 15 15 14 14 15 14 12 11 11 11 11 11 9 8 7 7 11 9 6 5 6 5 4 3 2 4 4 3 4 6 6 6 6 7 8 9 9 9 8 7 7 7 8 8 7 6 5
10 12 9 9 6 4 2 6 8 8 9 10 8 10 13 15 15 16 16 14 14 12 12 11 11 11 11 9 8 7 7 7 7 8 8 8 8 8 7 5 5 5 5 6 5 1 6 6 6 6 6 8 8 9 8 7 8 10 8 8 8 7 7
9 12 10 7 5 6 1 6 12 10 11 11 10 11 13 15 14 14 14 13 13 12 12 12 11 11 11 9 9 10 8 7 8 9 8 8 7 7 8 12 13 11 6 4 8 8 7 7 5 6 8 7 5 4 9 10 8 7 10 10 11 10 7
9 7 7 8 10 8 6 5 9 11 11 10 9 11 12 12 13 12 13 11 11 12 11 11 10 9 10 11 11 10 9 9 9 8 8 8 8 7 8 7 9 15 16 11 9 9 10 12 11 11 11 9 6 6 12 11 11 11 11 12 12 12 11
6 7 10 10 9 8 9 10 10 11 10 8 9 10 10 13 13 11 12 11 10 10 8 8 7 9 9 9 10 10 9 10 9 9 8 8 7 7 7 7 7 8 13 13 11 12 13 12 10 11 13 13 13 9 5 7 10 13 13 13 13 12 12
Wind_Direction
203 196 195 195 183 187 194 192 192 192 187 183 182 184 188 187 187 183 180 180 182 183 182 180 179 179 185 186 187 185 187 183 183 186 187 187 185 179 173 175 181 177 173 173 179 176 179 178 151 156 160 168 184 173 172 191 171 174 176 164 204 159 157
194 189 193 199 189 187 190 190 189 189 188 183 184 184 188 189 185 184 183 179 182 184 182 182 179 181 185 187 186 185 185 185 183 185 187 187 185 184 177 175 184 180 176 177 173 177 166 174 156 157 158 171 184 178 179 177 181 178 175 173 180 181 175
183 187 190 192 192 189 189 196 197 190 188 183 184 183 190 189 186 185 181 180 181 183 183 184 182 182 185 186 186 187 185 185 184 186 189 190 188 188 179 181 183 179 184 184 170 171 161 165 162 157 162 174 183 183 178 175 180 181 182 178 177 188 186
180 187 189 188 191 190 190 197 192 187 189 192 187 189 188 188 187 185 183 181 179 182 185 185 184 185 185 186 187 186 186 186 188 188 191 192 189 188 185 185 180 182 183 191 169 168 167 164 165 165 172 172 185 182 181 179 178 184 190 178 181 193 194
181 191 188 183 191 186 189 200 192 186 193 195 192 188 187 186 185 185 184 183 183 185 186 186 186 186 186 187 187 186 184 186 190 191 192 191 187 187 187 188 183 187 183 183 178 169 164 162 167 170 176 177 186 182 183 180 181 184 187 183 181 191 193
174 182 181 183 187 191 195 202 201 193 192 196 192 186 187 188 189 191 188 182 184 186 186 187 188 185 188 188 187 183 183 188 190 190 192 189 187 187 190 189 187 187 183 183 178 174 162 164 171 173 181 184 189 188 186 183 186 184 183 180 182 193 199
171 172 173 178 185 189 195 199 202 198 195 197 195 186 189 192 193 193 191 188 186 185 188 190 190 189 190 186 185 181 185 188 190 192 191 191 189 189 188 189 188 186 187 174 183 172 168 172 176 179 182 187 189 191 186 182 185 181 178 179 183 200 208
161 165 173 184 181 187 194 187 190 198 193 195 196 194 194 193 192 192 192 190 189 189 190 192 192 191 188 185 184 186 186 189 191 192 191 192 191 192 187 187 190 184 184 180 181 174 174 176 178 178 180 188 189 191 181 178 183 180 175 179 182 204 201
157 169 179 181 176 186 182 184 201 198 190 193 198 194 193 192 193 192 192 190 189 188 191 193 193 189 185 185 187 188 187 187 190 191 192 193 192 194 190 188 187 184 188 183 181 176 177 177 179 177 180 185 185 185 180 177 184 184 176 179 186 195 197
168 165 180 172 170 178 179 188 194 196 189 192 197 192 189 192 192 192 191 191 189 191 190 193 192 187 182 186 189 189 187 189 190 190 192 194 195 194 195 192 188 185 188 187 181 177 178 179 183 178 176 181 181 187 182 180 183 186 183 183 186 187 194
163 167 167 171 175 177 178 187 195 193 188 188 192 192 186 188 192 192 191 191 191 192 192 194 190 186 184 187 190 189 190 190 189 190 192 194 192 194 194 192 191 186 188 187 187 180 178 178 182 177 175 183 181 182 187 184 183 186 188 183 182 185 191
145 158 166 173 170 170 180 187 189 185 183 186 188 190 187 187 190 194 192 193 192 191 193 194 190 187 185 187 187 188 190 190 191 191 194 193 194 194 194 194 189 187 186 187 188 182 180 178 181 179 181 186 185 182 180 181 185 189 192 185 179 185 191
154 158 164 172 173 172 175 181 184 185 183 184 188 190 187 188 189 194 192 193 195 192 192 189 190 184 184 188 191 188 190 189 192 192 194 190 192 193 193 196 193 190 189 187 190 187 185 183 181 179 183 185 183 179 182 186 188 188 191 189 183 187 190
161 157 160 162 159 166 175 187 180 179 185 184 187 190 189 189 190 191 191 193 195 193 192 189 188 185 182 188 190 189 188 191 191 189 192 192 191 192 194 196 194 187 182 185 189 188 189 188 182 178 182 183 183 184 185 189 189 186 191 191 185 184 189
160 160 154 161 167 176 181 183 176 180 182 187 185 189 191 189 190 190 192 195 195 195 193 186 184 185 182 186 191 189 188 187 188 190 191 190 188 190 192 193 192 183 179 185 192 194 195 193 185 177 181 181 185 184 184 190 192 187 187 188 187 186 189
172 161 150 165 178 181 184 182 182 177 182 182 185 187 190 189 190 192 193 193 191 194 192 182 181 185 183 185 189 184 183 184 185 187 187 188 188 190 190 191 192 189 186 186 190 191 188 180 184 181 181 182 186 188 188 190 190 189 186 189 187 188 189
207 182 156 171 173 193 189 190 188 180 181 185 186 187 191 191 192 193 196 194 192 193 191 181 179 184 183 184 183 180 178 180 183 183 187 187 185 186 188 191 192 194 189 186 187 189 178 175 184 186 184 184 186 188 190 191 191 183 183 189 190 187 187
227 180 170 184 187 187 191 192 188 187 184 185 187 189 187 187 189 191 200 196 197 193 190 183 180 182 182 178 176 175 175 177 178 180 182 181 181 182 187 189 194 196 189 184 185 191 180 178 182 184 185 187 188 189 192 190 186 177 179 182 185 189 187
221 231 207 182 178 182 188 190 191 187 186 185 187 185 190 186 183 192 198 200 196 192 192 184 180 178 175 172 172 170 170 169 173 174 174 177 175 173 178 186 193 197 190 185 182 183 183 182 178 186 188 187 187 191 189 193 173 174 170 178 186 188 188
215 214 228 207 178 184 181 190 188 189 185 185 186 190 189 184 188 190 192 197 193 196 196 180 175 173 170 166 168 164 164 166 169 172 172 167 170 172 179 188 194 195 183 173 168 176 180 189 186 187 189 187 187 190 185 195 168 165 166 186 189 190 192
242 235 224 232 214 175 179 181 186 183 184 187 188 184 181 183 184 181 187 191 193 198 196 178 165 168 164 161 156 158 163 166 167 167 165 166 172 176 185 189 189 189 185 182 174 179 189 189 195 190 189 185 184 190 188 182 165 153 174 186 185 185 197
249 246 248 247 241 210 172 181 182 182 186 183 176 181 182 183 184 188 190 189 191 193 194 173 162 163 158 157 157 160 160 161 159 156 157 162 168 178 186 185 188 194 193 191 183 181 180 187 199 193 192 188 186 191 183 157 156 155 174 176 171 179 198
256 255 252 247 246 229 179 181 181 181 174 172 177 177 181 181 183 186 187 190 190 187 182 166 162 162 157 156 161 159 155 152 153 157 162 164 168 181 184 186 186 192 190 193 187 178 179 184 192 189 193 190 179 173 175 140 160 146 164 163 181 188 191
255 260 259 249 242 241 201 184 179 167 169 171 178 179 178 177 179 179 184 184 182 180 175 166 160 156 151 159 162 156 158 154 155 158 164 168 171 170 171 182 181 186 180 187 177 184 187 183 188 189 187 186 178 176 168 144 156 158 176 186 180 175 188
236 239 244 246 235 234 203 172 165 160 168 170 176 176 173 175 177 179 180 180 180 179 171 163 154 153 157 155 150 153 148 147 154 156 164 168 172 171 171 180 182 185 178 190 191 190 182 184 185 173 173 177 175 165 153 143 167 175 175 176 183 187 180
233 223 229 234 260 189 165 156 149 158 164 169 177 174 168 171 175 181 178 176 172 170 162 156 150 146 149 151 149 149 142 152 153 155 164 163 171 171 169 167 179 188 187 195 197 199 188 169 165 158 160 154 133 101 134 144 146 167 171 194 178 182 182
337 283 238 233 229 126 138 148 149 160 168 173 172 171 169 170 170 171 169 167 171 160 154 147 146 151 154 150 151 150 152 155 156 155 154 159 168 169 159 160 179 184 171 179 183 151 135 150 147 137 134 155 138 127 131 145 153 182 186 177 168 185 158
30 352 291 236 151 153 145 158 154 164 167 163 172 166 162 163 163 160 159 162 161 150 142 141 142 142 143 145 144 144 143 134 125 135 150 154 158 160 163 160 169 169 159 171 152 151 154 151 166 159 152 176 189 158 167 173 168 153 178 166 171 169 163
79 100 25 71 142 141 150 150 162 168 169 165 165 158 157 156 153 152 153 155 147 143 138 135 137 135 136 136 140 142 142 138 140 148 158 153 157 154 156 145 150 137 143 144 148 163 170 166 164 170 175 171 158 167 162 153 168 159 160 175 169 172 179
328 96 125 155 109 144 150 145 160 164 158 163 153 153 147 148 148 148 150 144 140 135 132 134 133 137 141 144 145 141 135 136 143 152 154 148 146 148 142 139 151 141 151 151 155 164 161 155 163 169 177 169 164 130 133 145 138 155 158 170 176 181 192
348 277 187 143 146 140 144 154 162 144 145 145 139 136 138 141 142 140 138 136 131 131 135 135 138 141 142 138 133 133 139 143 151 151 151 145 147 141 135 138 136 137 147 152 151 162 160 164 161 145 133 125 130 122 127 137 148 144 164 169 176 190 195
19 5 0 329 164 156 156 147 130 136 129 124 119 122 126 132 132 130 126 128 130 136 135 134 133 133 133 135 139 144 141 142 144 141 128 118 117 120 130 137 144 144 150 152 148 155 162 164 160 149 134 125 120 131 137 146 152 156 168 182 185 199 198
35 43 46 27 351 330 114 132 137 127 123 120 123 120 118 115 115 119 125 127 129 129 127 126 128 131 133 134 132 126 130 132 130 117 113 114 103 97 98 103 139 151 164 162 167 162 153 150 155 147 141 138 136 135 144 158 160 155 164 168 183 190 165
71 64 53 40 28 343 338 357 23 75 98 100 108 124 117 117 123 126 124 126 130 129 122 119 121 120 120 120 120 124 123 121 126 122 112 86 81 77 88 113 160 170 175 183 180 177 170 176 171 167 158 150 148 148 151 162 169 181 186 191 187 180 171
60 76 67 60 43 345 318 84 92 99 108 118 117 111 117 121 121 122 123 126 127 119 110 106 106 110 112 110 114 109 106 107 116 103 96 87 75 67 57 28 357 46 63 33 9 318 183 183 164 167 153 136 147 146 152 167 193 206 197 185 177 162 167
57 62 56 39 3 290 54 108 111 104 97 96 106 113 111 110 111 114 113 118 118 118 115 119 124 128 131 136 137 139 136 137 112 104 106 102 102 97 79 64 56 32 36 46 3 9 32 101 138 143 137 127 114 130 170 190 190 125 150 165 171 166 157
61 72 120 163 195 200 197 123 93 98 98 100 103 104 101 103 107 106 111 115 121 127 130 132 134 144 147 148 148 146 144 116 109 115 107 111 112 109 105 94 52 49 44 39 25 24 56 83 85 103 123 138 140 61 49 89 112 126 130 127 125 124 118
136 187 131 117 105 96 80 68 70 74 79 84 86 85 90 95 97 101 107 112 117 124 132 146 152 154 158 149 123 131 134 120 118 119 119 117 116 112 123 114 104 59 41 36 33 43 48 48 74 110 123 121 123 121 66 74 106 120 122 124 125 124 119